Wind_Speed
28 26 24 23 23 25 28 30 29 28 26 24 25 26 25 24 24 21 19 19 18 18 18 17 17 19 19 19 17 17 17 18 18 17 16 16 17 17 18 18 17 18
26 24 25 26 25 25 27 30 29 28 26 25 25 26 25 25 23 21 20 21 20 20 20 17 17 19 20 19 17 16 17 19 18 17 16 16 16 16 17 17 16 16
22 22 25 28 27 26 28 29 29 28 27 26 26 26 26 24 22 21 22 22 21 21 21 18 18 19 18 18 17 16 18 19 18 17 16 16 16 16 15 15 15 16
21 21 23 26 27 28 28 28 29 29 29 28 28 27 25 24 23 22 23 22 21 21 20 19 18 18 18 18 17 16 17 18 17 17 17 16 17 16 15 15 14 16
24 23 23 25 26 28 29 29 31 32 32 31 30 27 25 24 24 24 24 23 21 21 21 20 18 17 17 18 17 17 17 17 16 16 17 18 17 16 16 16 14 15
26 25 25 25 26 29 30 30 30 32 33 33 31 28 27 26 25 25 25 23 23 22 21 19 18 17 17 17 17 17 17 17 17 17 17 18 18 16 16 17 16 15
26 27 28 28 31 32 25 19 21 27 31 34 32 30 28 27 26 25 24 23 24 22 20 18 17 17 17 16 16 16 17 17 18 18 18 17 17 16 15 17 16 16
24 27 29 30 32 30 20 15 20 25 29 34 33 31 29 27 27 25 23 24 24 21 20 18 16 17 18 16 15 15 17 18 19 19 17 16 16 16 15 15 16 16
22 25 28 30 31 26 21 21 23 24 29 34 33 31 30 28 26 25 24 23 22 21 21 18 16 18 18 16 15 15 15 17 18 18 18 17 17 16 14 14 15 15
19 23 27 29 26 20 20 22 21 21 27 32 33 31 30 28 25 24 24 23 23 23 21 18 17 19 19 17 15 15 15 16 17 17 17 17 16 15 14 14 14 14
18 22 25 26 21 15 19 23 22 22 24 29 32 31 28 27 25 23 23 23 24 24 22 19 18 19 19 18 15 15 16 16 16 16 16 15 15 15 14 13 13 13
19 20 23 23 18 14 20 24 25 26 25 26 30 29 27 26 25 24 24 24 24 23 22 21 19 18 18 17 15 15 16 15 14 16 15 15 15 15 14 13 12 12
19 20 23 23 17 15 22 25 27 29 27 25 26 27 27 26 25 24 24 24 24 23 23 22 19 17 17 18 16 14 14 13 13 15 15 15 15 15 14 13 11 11
17 19 21 23 19 19 25 28 28 29 28 26 26 26 26 26 25 24 24 24 25 25 23 22 19 16 17 18 15 14 13 13 13 15 16 16 16 15 15 13 10 9
17 19 19 21 23 24 27 28 25 27 29 27 27 27 26 26 24 22 23 25 26 25 22 20 18 17 18 17 15 14 15 14 14 15 16 17 18 17 15 12 9 6
20 20 19 20 25 27 28 26 24 28 29 26 28 29 27 26 24 22 25 27 26 24 22 19 18 18 18 17 15 15 15 14 14 14 15 17 18 17 15 12 9 7
21 21 19 19 25 29 28 27 26 29 29 24 27 31 28 27 27 26 27 27 25 23 22 20 19 18 18 17 16 16 14 13 13 12 13 16 16 16 16 14 12 10
18 22 21 19 25 29 28 26 26 28 28 26 30 32 29 29 29 29 28 26 25 24 22 21 20 18 18 17 17 17 15 13 12 11 12 14 16 16 17 16 14 13
10 23 25 22 25 29 26 24 26 28 28 29 32 32 31 32 32 31 30 27 24 23 22 21 20 18 18 16 15 15 15 14 12 10 11 14 17 18 18 17 15 14
4 16 25 25 26 28 26 26 27 29 29 31 34 34 33 34 32 31 30 26 23 22 20 20 19 17 16 16 15 15 15 14 12 13 15 16 18 18 18 17 16 15
15 9 15 24 28 28 27 28 29 30 30 31 34 35 34 34 32 30 29 25 22 20 19 18 16 14 14 14 15 16 17 16 16 18 20 19 19 19 18 18 17 15
23 17 12 17 28 30 28 28 29 30 32 34 34 34 33 32 31 29 28 26 22 19 19 18 15 13 13 13 14 16 18 19 20 21 22 21 21 20 19 18 16 14
29 23 17 14 26 31 28 28 28 27 30 34 36 34 33 31 30 29 28 27 24 21 20 20 18 15 13 14 15 15 17 20 21 22 24 24 23 22 20 19 16 14
33 30 23 17 23 30 28 28 28 25 26 32 36 35 34 31 30 30 29 27 26 24 22 21 20 17 15 16 17 17 19 21 22 24 25 25 23 21 19 18 16 14
34 33 28 23 23 28 29 29 28 27 27 30 33 34 33 32 31 31 31 29 27 25 23 22 21 19 17 18 18 19 21 22 23 24 25 24 22 20 18 17 15 14
34 34 31 29 28 28 29 30 29 28 28 29 30 32 32 31 31 33 33 30 28 27 25 23 22 20 18 18 19 19 20 22 23 24 24 23 21 19 18 16 14 13
Wind_Direction
211 207 205 209 214 211 204 201 199 196 196 197 197 195 191 186 183 183 183 181 181 181 182 186 191 191 190 190 190 192 193 193 192 193 198 201 204 207 206 205 206 207
213 209 204 207 215 214 207 204 200 196 195 195 195 192 187 184 182 181 182 181 182 185 185 183 184 184 184 186 188 190 192 192 193 194 196 198 202 203 203 204 207 209
216 209 206 207 212 212 208 206 202 197 195 194 191 187 185 184 183 182 182 181 181 183 183 180 180 183 184 185 188 191 191 192 195 196 196 199 201 201 202 204 206 206
222 215 209 208 210 210 209 207 202 196 193 191 187 184 185 185 184 183 183 182 179 180 182 180 180 183 185 187 189 189 190 191 194 196 198 202 202 202 204 204 204 205
219 220 216 212 211 209 209 208 203 195 190 188 185 184 185 185 185 185 184 182 179 178 180 181 182 183 184 189 191 189 191 193 192 196 201 204 205 206 208 207 204 204
217 221 221 218 215 212 212 211 204 194 186 182 181 182 182 181 183 184 183 183 180 176 177 179 180 179 180 185 187 187 191 194 193 196 202 205 205 207 210 208 204 205
219 221 221 222 218 216 218 217 207 196 186 180 178 178 179 177 178 180 180 179 176 172 172 175 177 179 181 182 182 183 187 191 192 195 199 202 203 204 206 208 208 209
221 222 223 224 221 218 220 218 211 204 191 181 177 177 177 176 175 177 177 174 172 172 172 174 175 177 180 181 181 184 187 191 194 195 198 201 203 204 205 207 210 211
223 223 225 225 223 218 215 213 214 211 197 182 175 175 176 175 175 176 177 175 175 175 174 172 170 170 175 178 180 183 184 188 194 196 198 200 202 204 202 203 207 210
223 225 226 224 221 215 206 208 213 211 196 179 170 171 171 171 171 172 174 175 175 173 170 169 170 171 176 181 184 187 185 186 189 191 195 200 199 199 197 199 205 208
222 223 225 222 219 209 196 200 201 196 188 174 167 168 168 169 169 169 171 172 171 171 168 169 171 171 176 183 187 186 185 187 190 191 196 201 198 194 194 198 204 209
223 219 223 223 221 203 192 193 189 181 178 172 167 166 167 170 172 173 173 171 170 171 170 170 171 172 178 183 181 177 181 187 190 192 197 201 199 196 196 200 207 214
224 219 219 219 214 196 189 187 180 175 173 172 170 167 165 168 173 176 177 175 174 172 171 171 172 173 177 180 177 176 180 180 177 181 186 189 192 190 190 197 203 210
222 215 210 208 201 189 182 178 175 174 171 170 173 172 168 168 173 178 179 175 171 169 169 170 172 173 176 176 175 178 181 176 171 174 174 171 170 171 176 185 191 200
226 213 208 200 190 181 175 175 177 173 168 171 178 176 170 168 171 175 173 168 164 163 164 164 165 169 170 169 168 168 165 160 159 163 162 158 158 163 170 173 172 182
234 217 212 197 184 178 172 173 178 171 167 176 182 174 166 165 165 163 161 160 157 156 156 156 158 161 163 164 164 163 158 151 150 151 153 153 156 161 165 162 158 165
234 216 210 191 179 178 172 170 175 171 169 174 170 162 160 161 159 155 154 155 154 152 150 149 149 151 155 158 159 160 163 159 151 146 149 157 162 162 162 161 161 162
227 205 201 185 172 172 170 173 176 170 165 162 154 153 153 152 151 150 150 151 151 150 147 142 142 143 145 150 153 155 159 159 153 141 138 154 167 167 164 162 158 156
206 188 187 180 169 167 166 169 169 162 159 154 148 148 148 144 143 145 144 145 145 145 142 139 140 140 139 142 147 153 160 162 156 142 134 151 167 167 161 158 154 154
91 166 172 167 164 164 159 156 156 153 151 148 145 145 143 140 139 140 139 140 142 140 138 136 138 140 141 141 137 141 156 163 154 144 142 151 160 157 152 152 152 151
43 88 142 147 149 153 150 145 146 145 143 141 140 140 139 137 137 137 137 137 137 138 136 131 131 138 143 144 137 132 139 144 141 140 142 146 149 148 146 147 147 144
39 48 76 119 132 137 137 135 136 138 138 137 135 132 132 132 132 132 132 131 131 134 132 122 119 128 141 147 146 140 135 131 131 134 135 136 136 137 137 137 136 133
41 43 42 80 114 121 122 124 126 128 130 133 133 128 126 126 125 124 124 125 124 124 123 116 108 112 128 141 147 148 141 133 131 130 127 125 123 124 126 126 122 120
46 43 36 53 93 107 111 115 118 117 118 123 126 124 122 122 120 117 115 115 114 112 113 111 104 101 112 126 137 146 144 137 134 129 124 122 119 117 117 117 113 110
55 49 39 43 70 91 101 106 109 110 111 114 117 117 116 115 115 112 107 104 103 103 103 104 101 99 103 111 121 133 140 139 136 130 123 119 117 114 111 109 107 104
63 58 48 44 54 71 86 96 102 105 108 109 111 112 112 110 108 105 100 97 97 97 95 94 93 93 96 103 109 118 127 132 133 130 124 118 114 110 105 101 98 93
Height
789 791 793 796 797 797 796 797 798 799 801 802 804 806 807 809 810 812 812 813 815 816 817 818 820 821 822 823 824 825 826 827 828 830 831 832 833 834 834 835 836 837
790 792 793 794 796 797 797 797 798 799 800 802 803 805 807 808 809 810 811 812 814 815 817 818 819 820 821 822 823 824 825 827 828 829 831 831 832 833 834 835 835 836
792 792 792 791 793 795 795 795 796 797 798 800 802 804 805 807 808 809 810 812 813 815 816 817 818 819 821 822 823 824 825 826 828 829 830 831 832 832 833 834 835 836
791 791 790 790 790 791 791 792 792 794 796 798 800 802 804 805 807 809 810 812 813 814 815 816 818 819 820 821 822 823 824 826 827 829 830 831 831 832 833 834 835 835
788 789 788 788 788 788 788 787 788 789 791 794 797 800 802 804 806 808 810 811 812 813 814 815 817 818 819 820 822 823 824 825 827 828 830 830 831 832 832 833 834 835
784 785 785 786 787 786 785 785 786 786 787 790 794 797 800 803 805 808 809 811 812 813 814 815 816 818 819 820 821 822 824 825 826 828 829 830 830 831 832 833 834 835
781 782 782 783 783 783 786 789 791 790 788 789 791 794 798 801 804 806 808 810 811 812 813 814 816 817 819 820 821 822 824 825 826 827 829 829 830 830 831 832 834 834
778 779 779 780 781 783 787 791 793 794 792 789 789 793 796 799 802 805 807 809 810 812 813 814 815 817 818 820 821 823 824 825 826 827 828 828 829 830 831 832 833 833
777 777 777 777 779 782 787 790 792 795 794 789 789 792 795 798 801 804 806 808 810 811 812 813 815 816 818 820 821 822 823 824 825 826 827 827 828 829 830 831 831 832
777 776 775 776 779 782 786 790 793 796 796 790 789 792 795 798 801 803 805 807 809 810 811 813 814 816 818 819 820 821 823 824 825 825 826 827 827 828 829 830 831 831
777 776 775 777 780 782 785 789 791 795 796 792 790 792 795 798 801 803 805 806 808 809 811 812 814 815 817 819 820 821 822 823 824 825 826 826 827 828 829 830 830 831
775 775 775 777 780 781 782 786 788 791 795 794 792 792 795 798 801 803 805 806 808 809 810 812 814 815 817 818 819 820 821 822 823 824 825 826 827 828 829 829 830 830
773 774 774 775 778 779 781 784 786 788 792 795 796 794 795 798 801 803 805 806 807 809 810 812 813 815 816 817 818 819 821 821 822 823 824 825 826 827 828 829 830 830
773 772 772 773 776 778 779 782 784 786 789 795 799 798 796 797 800 803 804 805 807 809 810 812 813 814 816 817 818 819 820 821 821 822 823 824 825 826 828 829 830 830
771 771 772 772 774 776 778 781 784 786 789 795 800 798 796 797 800 802 804 805 807 809 810 811 812 814 815 816 818 818 819 820 821 822 823 823 825 826 828 829 829 830
769 769 770 771 771 773 776 780 785 786 788 794 797 795 795 796 799 802 804 806 808 809 810 811 812 814 815 816 817 818 819 820 821 822 822 823 824 826 827 828 829 829
768 768 769 770 770 772 775 779 784 785 788 793 793 792 793 795 797 800 803 806 808 809 810 811 812 814 815 816 817 818 819 820 821 822 822 823 824 825 826 827 828 828
768 768 769 769 770 772 775 778 782 784 787 791 790 790 792 794 796 799 802 806 808 809 810 811 813 814 815 816 817 818 819 820 821 821 822 823 824 825 826 826 827 828
767 767 768 768 769 771 774 778 782 783 786 788 788 789 791 793 796 798 801 805 808 809 811 811 813 815 816 817 818 818 819 820 820 821 822 823 824 824 825 826 827 828
768 767 766 766 768 770 774 778 780 782 785 787 786 788 791 792 796 798 800 804 808 809 811 812 813 815 816 817 818 817 818 818 819 821 821 822 823 824 825 826 827 828
770 769 768 766 767 770 773 776 778 781 785 786 786 788 790 792 796 799 800 803 808 810 811 812 813 815 816 817 818 817 817 818 819 820 821 822 823 824 825 826 828 828
775 773 772 770 768 770 774 777 780 782 784 785 786 789 791 794 797 799 800 803 807 810 811 812 814 815 816 817 818 817 817 818 819 821 821 822 823 824 825 827 828 829
780 778 778 776 772 772 776 779 782 785 785 784 786 789 793 796 799 801 802 803 806 809 811 812 814 816 816 816 817 817 818 818 820 821 822 823 824 825 826 827 828 829
786 784 785 783 777 776 779 781 784 787 787 786 787 791 794 798 801 802 803 804 806 809 811 813 815 816 817 817 817 817 818 819 820 821 822 824 825 826 827 828 828 829
790 790 791 789 784 781 782 783 786 789 790 791 792 794 796 800 803 802 803 805 807 810 812 814 815 817 818 818 817 818 818 818 819 821 823 825 826 827 828 829 829 830
794 795 796 794 789 787 786 787 789 792 794 796 797 797 799 802 804 803 803 807 809 811 814 815 816 818 819 819 819 819 819 819 819 820 823 825 827 828 829 830 830 831